TimeCST,TemperatureF,Dew PointF,Humidity,Sea Level PressureIn,VisibilityMPH,Wind Direction,Wind SpeedMPH,Gust SpeedMPH,PrecipitationIn,Events,Conditions,WindDirDegrees,DateUTC
12:53 AM,15.1,12.0,88,30.03,6.0,SSW,9.2,-,N/A,,Clear,200,2014-03-07 06:53:00
1:53 AM,16.0,12.9,88,30.01,5.0,SSW,9.2,-,N/A,,Clear,200,2014-03-07 07:53:00
2:53 AM,18.0,15.1,88,29.98,5.0,South,15.0,-,N/A,,Clear,190,2014-03-07 08:53:00
3:53 AM,19.0,16.0,88,29.95,5.0,South,16.1,-,N/A,,Clear,190,2014-03-07 09:53:00
4:53 AM,19.0,16.0,88,29.94,5.0,South,16.1,-,N/A,,Clear,190,2014-03-07 10:53:00
5:53 AM,21.0,18.0,88,29.94,5.0,SSW,16.1,-,N/A,,Clear,200,2014-03-07 11:53:00
6:53 AM,21.9,18.0,85,29.93,4.0,SSW,13.8,-,N/A,,Clear,200,2014-03-07 12:53:00
7:53 AM,24.1,19.9,84,29.92,4.0,South,12.7,-,N/A,,Clear,190,2014-03-07 13:53:00
8:53 AM,26.1,21.0,81,29.92,5.0,South,12.7,-,N/A,,Haze,190,2014-03-07 14:53:00
9:53 AM,30.9,24.1,76,29.90,5.0,South,16.1,-,N/A,,Haze,190,2014-03-07 15:53:00
10:53 AM,36.0,26.1,67,29.90,6.0,SW,10.4,-,N/A,,Haze,220,2014-03-07 16:53:00
11:53 AM,37.9,28.9,70,29.89,6.0,SW,12.7,-,N/A,,Haze,230,2014-03-07 17:53:00
12:53 PM,37.9,30.0,73,29.88,5.0,SW,10.4,-,N/A,,Haze,230,2014-03-07 18:53:00
1:00 PM,37.9,30.0,73,29.84,5.0,SW,10.4,-,N/A,,Haze,230,2014-03-07 19:00:00
1:53 PM,37.9,30.9,76,29.88,5.0,WSW,10.4,-,N/A,,Haze,250,2014-03-07 19:53:00
2:53 PM,39.0,32.0,76,29.89,5.0,West,11.5,-,N/A,,Haze,270,2014-03-07 20:53:00
3:53 PM,37.0,32.0,82,29.90,3.0,West,10.4,-,N/A,,Haze,270,2014-03-07 21:53:00
4:53 PM,36.0,32.0,86,29.93,3.0,WNW,11.5,-,N/A,,Overcast,290,2014-03-07 22:53:00
5:34 PM,35.1,32.0,89,29.89,3.0,WNW,6.9,-,N/A,,Overcast,300,2014-03-07 23:34:00
5:43 PM,35.1,32.0,89,29.90,3.0,WNW,8.1,-,N/A,,Overcast,300,2014-03-07 23:43:00
5:53 PM,35.1,32.0,89,29.94,2.5,NW,8.1,-,0.00,,Overcast,310,2014-03-07 23:53:00
6:07 PM,35.1,32.0,89,29.91,3.0,WNW,8.1,-,0.01,,Overcast,300,2014-03-08 00:07:00
6:25 PM,35.1,32.0,89,29.90,3.0,North,9.2,-,0.02,,Overcast,350,2014-03-08 00:25:00
6:53 PM,35.1,32.0,89,29.96,3.0,North,10.4,-,0.02,,Overcast,350,2014-03-08 00:53:00
7:18 PM,34.0,32.0,92,29.94,3.0,NNW,8.1,-,N/A,,Overcast,330,2014-03-08 01:18:00
7:39 PM,34.0,32.0,92,29.95,3.0,NNW,6.9,-,N/A,,Overcast,340,2014-03-08 01:39:00
7:53 PM,34.0,32.0,92,29.99,3.0,NNW,9.2,-,N/A,,Overcast,340,2014-03-08 01:53:00
8:40 PM,34.0,32.0,92,29.97,3.0,NW,5.8,-,N/A,,Overcast,310,2014-03-08 02:40:00
8:53 PM,34.0,32.0,92,30.01,3.0,NW,6.9,-,N/A,,Overcast,320,2014-03-08 02:53:00
9:53 PM,34.0,30.9,89,30.02,3.0,NNW,9.2,-,N/A,,Overcast,340,2014-03-08 03:53:00
10:53 PM,34.0,30.9,89,30.04,3.0,North,12.7,-,N/A,,Overcast,360,2014-03-08 04:53:00
11:53 PM,34.0,30.0,85,30.04,4.0,North,15.0,-,N/A,,Overcast,10,2014-03-08 05:53:00